Wind_Speed
31 30 31 30 29 30 30 29 27 28 31 30 28 27 23 15 8 5 6 6 8 17 24 24 29 35 35 34 34 33 32 31 30 30 31 31 30 29 29 29 28 27 26 26 25 24 24 23 22 22 22 22 22 22 23 23 23 23 24 24 24 24 24 25 25 26 26 26 27 27 27 28 29 28
34 33 31 30 30 30 30 30 30 27 27 28 28 28 28 25 15 8 7 8 9 16 23 26 28 33 35 33 33 34 33 32 31 31 32 31 30 29 29 29 28 27 26 26 26 25 24 24 23 23 23 23 23 23 23 24 24 24 25 25 25 25 25 26 26 27 27 27 27 28 28 29 29 29
33 33 33 32 31 32 31 30 31 29 26 26 26 26 26 27 24 16 8 6 11 19 23 26 28 32 35 34 33 33 33 32 31 31 31 31 30 29 29 28 28 27 26 26 26 26 25 25 25 25 25 24 24 24 24 25 25 25 25 25 26 26 27 27 27 28 28 28 29 29 29 30 30 30
31 31 33 33 33 34 33 31 31 31 29 27 26 25 25 24 24 22 13 6 9 18 24 27 28 31 34 35 34 33 32 31 31 31 31 31 30 29 28 28 27 27 26 26 26 26 25 25 25 25 25 24 24 24 24 25 25 25 26 26 26 27 27 27 28 29 29 29 30 30 30 30 30 31
29 29 30 32 34 34 33 31 31 31 30 28 27 26 25 24 24 23 18 10 7 11 19 26 29 31 34 34 35 34 32 31 30 29 30 30 30 29 27 27 27 26 26 26 26 26 26 25 25 25 25 24 24 24 24 24 25 25 25 25 26 27 27 28 28 29 30 30 30 31 31 31 32 32
27 28 28 30 31 32 32 31 31 31 30 29 28 27 26 25 25 25 21 16 10 7 12 21 25 30 34 34 34 35 33 32 31 30 29 29 29 28 27 28 28 28 28 27 26 26 25 25 25 25 25 25 24 24 24 24 24 24 24 25 26 27 27 28 28 29 30 30 31 31 31 32 32 33
27 27 27 28 30 30 29 30 31 31 31 30 29 29 28 26 26 26 25 20 15 9 10 17 22 27 31 32 32 34 32 31 32 32 31 29 28 28 28 29 29 28 27 26 25 24 24 23 24 24 24 24 24 23 23 23 23 24 24 25 26 27 27 28 29 29 30 30 31 31 32 33 33 34
26 25 25 27 29 28 28 29 30 30 30 30 30 29 28 27 26 27 26 24 21 14 11 15 21 25 28 28 30 32 30 29 31 31 30 30 29 29 29 28 28 28 26 24 24 24 24 24 24 24 24 23 23 23 22 23 23 24 24 25 25 26 27 28 29 29 30 31 31 32 33 33 34 35
26 25 25 26 27 27 28 29 29 30 30 29 29 28 27 27 27 26 26 26 25 19 14 15 19 22 24 24 27 31 31 28 27 27 28 29 28 28 28 27 27 26 24 23 23 23 23 24 23 23 23 23 23 23 22 23 23 24 24 25 25 26 27 28 29 29 30 31 32 33 34 34 35 36
27 26 26 26 26 26 27 29 29 30 31 29 28 28 27 27 26 24 25 25 25 23 20 17 18 21 23 22 23 29 32 29 27 25 24 26 28 27 26 26 26 26 26 25 25 25 24 24 24 23 23 23 23 23 23 23 23 23 24 25 26 26 27 28 29 30 31 32 33 33 34 35 36 37
28 28 27 27 27 27 27 29 30 29 29 29 29 29 29 27 26 24 24 24 24 23 20 19 19 20 22 22 21 26 30 28 27 28 24 21 24 26 25 26 27 26 27 26 25 25 24 24 23 22 22 22 22 21 22 22 23 23 24 25 26 26 27 28 28 29 30 31 32 33 33 34 35 36
30 29 29 29 29 29 28 29 29 29 29 28 29 30 29 28 27 25 24 23 22 22 20 18 20 20 20 22 21 23 27 25 25 28 25 19 20 25 26 26 26 25 26 27 25 24 23 22 21 21 21 21 21 21 22 22 23 24 24 25 26 26 26 27 28 29 30 31 32 32 32 33 35 35
30 30 30 30 30 29 29 29 29 29 31 30 29 29 29 28 27 26 25 23 21 20 18 17 18 18 18 21 21 22 26 27 25 25 24 20 20 22 23 24 25 25 25 25 24 23 22 22 22 22 23 23 22 21 22 21 21 21 22 23 24 25 26 27 28 29 30 31 31 32 32 33 34 35
31 32 32 32 32 32 32 32 31 31 32 33 32 31 31 31 30 27 24 23 23 21 18 18 18 15 15 21 25 24 26 27 25 24 24 22 19 18 16 17 21 24 24 22 22 23 23 22 23 23 24 23 22 21 20 19 20 20 21 23 24 25 26 26 27 28 29 30 31 31 32 33 33 34
30 30 30 31 31 32 32 33 34 34 33 34 34 33 33 34 34 32 27 25 24 22 19 20 20 17 17 23 27 25 25 25 25 25 25 21 19 17 14 11 13 20 22 21 21 22 22 21 21 23 23 22 21 21 21 20 21 22 23 24 25 25 26 27 28 29 30 30 31 31 32 33 34 35
28 27 28 30 30 31 32 33 33 33 32 33 34 34 34 36 37 37 35 31 28 27 23 20 21 23 22 23 26 27 27 26 26 25 24 22 21 20 16 12 12 14 18 20 20 19 19 19 19 21 22 22 22 23 23 22 22 22 23 24 25 25 26 27 28 29 30 30 30 31 32 33 34 35
29 30 30 30 30 31 32 32 32 32 32 34 36 36 35 36 38 39 41 39 36 34 30 24 24 28 28 25 27 31 29 27 25 24 23 23 22 20 18 17 16 13 13 17 17 16 18 19 19 22 23 24 24 23 21 20 20 21 23 23 24 25 26 27 28 28 29 29 30 31 32 33 34 34
32 33 32 30 30 30 32 32 33 33 34 34 35 34 34 36 37 39 40 40 39 37 35 32 31 32 32 30 29 30 30 29 29 26 24 23 22 20 18 16 16 15 15 15 12 11 16 18 20 23 24 22 22 21 19 19 20 21 22 23 24 25 26 26 27 27 28 29 29 31 32 32 33 34
35 35 34 32 31 31 32 33 33 34 35 33 31 31 33 34 36 37 38 39 38 37 36 35 34 32 32 32 29 28 30 31 30 28 26 24 21 19 16 15 15 16 18 17 11 8 13 17 18 21 21 19 20 21 20 21 22 22 22 22 23 24 24 25 26 27 28 28 29 30 31 32 33 34
35 34 33 32 33 33 33 33 34 34 33 31 29 30 31 32 33 34 37 37 36 36 35 34 33 31 31 31 29 29 30 29 28 25 22 20 19 16 12 10 13 17 21 21 16 12 15 18 19 20 20 20 22 24 24 23 23 21 20 19 20 22 23 24 26 27 28 28 30 30 31 31 32 33
34 33 32 32 32 32 31 31 33 34 31 29 29 29 28 29 29 30 32 32 30 31 31 30 29 27 27 27 26 27 29 30 30 26 21 19 19 15 8 5 10 18 21 20 17 16 16 17 18 20 22 23 24 24 24 22 18 15 14 15 17 20 22 24 26 27 28 29 29 30 30 30 31 32
30 31 32 33 33 31 29 30 32 33 32 30 29 28 27 26 25 25 27 27 26 26 25 23 23 22 22 23 23 24 27 30 32 29 24 21 19 14 8 7 9 15 19 18 15 15 15 16 17 17 19 20 21 21 19 15 9 8 11 16 20 22 24 25 26 27 28 28 28 28 29 29 29 30
24 24 27 32 34 33 32 32 32 32 32 31 30 28 26 23 23 24 27 28 27 25 24 23 22 22 22 24 25 24 24 27 30 29 26 24 21 15 13 12 8 6 11 15 16 15 13 14 15 13 10 9 11 11 9 7 7 11 18 23 25 25 24 25 26 26 26 26 26 27 27 27 27 27
22 22 23 27 31 31 32 32 31 30 31 32 31 28 26 24 24 27 30 30 29 26 25 24 24 23 24 25 27 26 24 24 26 26 24 22 20 17 17 18 14 9 8 8 11 13 10 9 11 12 9 6 6 7 8 11 15 20 24 26 25 24 24 25 26 26 26 26 27 27 27 26 25 26
20 23 23 23 25 27 29 29 27 27 29 30 30 29 29 27 27 29 29 28 27 26 26 25 24 24 25 26 28 28 26 24 24 24 21 19 18 18 20 20 19 19 18 13 10 12 10 10 12 13 12 11 11 13 16 21 26 26 24 22 22 23 25 26 28 28 28 29 28 28 27 26 24 25
21 25 25 23 22 24 26 24 23 24 26 27 28 28 26 23 25 28 28 27 27 27 27 27 26 25 26 27 28 28 26 23 21 21 19 18 18 19 21 22 20 21 21 17 14 15 14 14 15 14 13 12 12 13 15 20 24 22 16 16 22 26 27 26 27 28 28 29 30 29 27 26 26 26
22 25 25 23 22 22 22 21 21 22 25 26 26 25 22 22 26 29 28 28 29 28 28 27 25 24 25 26 25 24 24 22 20 19 17 17 18 19 20 21 20 20 19 16 16 17 17 18 18 18 17 15 11 10 12 15 18 17 17 22 27 29 27 25 25 27 27 29 30 30 29 29 28 29
22 24 24 23 21 20 20 20 19 21 24 26 24 23 23 25 29 29 28 29 29 27 25 24 22 22 23 24 24 24 23 21 18 16 15 15 16 16 16 16 16 16 17 17 18 19 21 23 24 23 22 20 15 10 10 13 16 19 23 27 28 26 26 25 25 26 27 29 30 30 30 31 30 30
22 21 20 19 18 18 17 17 17 19 23 24 22 23 26 28 30 30 28 28 27 24 22 22 21 21 22 23 24 23 21 18 16 15 15 14 14 13 13 13 13 13 13 14 15 16 18 21 22 21 21 20 20 18 17 17 21 24 24 25 27 28 28 25 23 25 27 29 31 31 30 31 31 29
16 15 16 17 17 17 16 17 18 21 23 22 23 26 29 29 29 29 28 27 25 22 21 22 22 22 22 21 20 19 17 15 15 15 15 14 13 12 11 10 10 9 8 8 8 8 11 14 15 16 19 20 21 23 23 21 24 27 25 24 27 28 26 25 24 26 29 31 33 33 31 31 31 30
14 15 16 17 18 17 17 18 21 24 24 25 27 28 28 27 27 27 27 27 25 23 23 23 23 23 22 20 19 18 16 15 15 15 14 13 12 11 9 8 6 5 4 4 4 6 8 11 12 15 19 20 20 23 24 23 25 28 28 26 26 25 26 29 29 30 31 32 33 34 34 33 33 32
18 19 21 21 22 22 23 23 25 25 25 27 28 26 25 25 25 24 24 24 24 24 24 24 23 23 21 20 19 19 17 16 16 15 13 12 11 10 8 6 5 3 3 4 4 6 8 9 11 14 16 19 20 23 23 23 26 28 28 28 27 26 28 31 30 29 30 30 33 37 38 36 35 33
22 22 22 22 22 23 24 23 23 23 24 24 25 25 25 25 23 22 22 23 23 24 25 25 24 23 22 21 21 20 18 17 16 15 13 12 11 10 9 8 6 5 5 5 5 5 6 8 10 12 15 17 20 22 22 23 25 27 27 28 28 27 27 28 28 29 29 29 32 38 40 39 36 33
22 20 18 18 18 20 20 19 19 20 22 23 22 22 23 24 23 22 23 24 24 24 25 24 24 24 23 23 22 21 20 18 16 14 13 12 11 10 10 10 8 6 7 8 6 6 7 8 9 11 14 16 18 21 21 23 27 29 27 26 26 26 27 27 26 28 29 29 30 34 39 43 40 33
19 17 16 15 16 17 18 17 18 19 21 22 22 21 21 21 22 22 22 23 24 24 24 24 24 25 25 25 24 22 21 19 17 15 13 12 11 11 10 10 9 6 6 8 8 7 8 10 11 13 13 12 13 16 15 14 20 26 27 25 23 23 26 28 28 30 31 31 30 29 32 39 43 37
15 14 15 14 14 16 16 16 18 19 20 21 22 22 21 19 20 21 22 22 23 23 24 24 25 25 25 25 24 22 21 20 18 16 14 13 11 10 9 9 8 6 6 7 8 8 8 10 11 11 9 6 6 8 9 10 13 17 21 25 25 24 27 31 32 31 31 30 29 26 25 32 43 45
14 13 14 13 14 16 16 17 18 19 20 21 22 22 22 20 19 20 21 21 22 23 24 25 25 24 24 24 23 21 20 20 18 17 15 13 11 10 10 9 8 7 7 7 7 7 8 9 11 10 7 4 4 5 10 15 17 16 17 21 25 26 28 30 31 30 28 28 28 28 27 31 42 50
14 14 14 14 15 16 17 18 19 19 20 21 21 20 21 20 19 18 19 20 22 22 23 24 24 23 23 23 23 21 20 18 16 15 14 14 13 12 10 9 8 7 7 8 8 8 7 8 10 10 8 5 3 6 8 9 15 21 23 23 26 30 29 27 27 28 29 29 30 31 32 34 43 51
14 15 15 15 16 17 17 18 20 20 21 21 21 20 20 20 18 17 18 20 21 22 22 23 23 22 22 22 22 21 20 18 17 16 16 15 14 12 10 8 7 6 7 10 10 9 8 9 10 10 9 8 8 12 14 14 19 29 30 25 25 29 28 25 25 27 29 31 33 34 35 37 42 46
13 14 15 17 18 18 18 18 19 20 21 21 21 21 21 21 20 19 19 21 22 22 21 21 21 21 21 20 20 19 19 18 17 16 15 14 12 11 9 7 7 7 8 11 12 11 11 12 11 11 13 15 17 21 23 23 26 29 28 24 23 26 27 27 28 28 29 31 32 33 33 33 34 34
14 14 15 17 18 19 20 20 19 20 20 20 20 20 20 20 20 20 20 22 23 22 21 20 20 20 20 20 20 19 18 17 16 15 14 13 12 10 8 7 8 8 8 10 12 14 14 14 14 14 15 18 20 19 16 13 14 19 23 25 26 27 28 28 28 28 30 32 32 30 28 28 28 28
13 13 14 15 17 18 19 19 19 19 19 19 19 19 19 19 19 19 20 21 22 22 21 20 20 20 21 21 20 18 17 17 16 15 13 12 11 9 9 9 10 10 10 11 14 16 17 16 16 16 17 18 17 13 6 5 9 16 23 27 29 30 31 30 28 28 31 32 30 27 24 21 19 16
11 13 13 13 15 16 17 18 18 18 18 19 19 18 18 18 18 20 21 22 22 22 21 21 21 20 21 21 19 18 16 15 14 13 12 12 11 11 10 11 11 11 12 14 17 18 18 18 17 17 17 18 16 11 9 11 15 19 23 26 28 31 32 32 31 32 33 32 29 25 22 21 18 15
10 11 12 13 13 14 15 16 16 17 17 18 17 17 17 18 19 20 22 23 23 23 23 22 21 21 20 19 18 17 17 15 14 13 13 12 12 11 11 11 11 12 14 15 17 18 18 18 18 17 17 17 16 13 14 16 17 19 22 24 27 30 31 30 31 35 37 36 32 27 24 25 25 27
9 9 10 12 12 13 14 14 15 15 16 17 17 18 18 19 20 21 22 23 24 24 24 23 22 20 19 18 18 18 17 15 14 14 13 13 12 12 12 12 12 13 14 14 15 17 18 19 19 18 17 17 17 16 18 19 19 20 22 23 25 27 28 27 28 30 33 35 35 32 29 28 29 31
Wind_Direction
234 234 235 236 237 238 238 238 235 228 222 221 219 213 210 207 198 186 199 203 209 204 199 199 205 208 210 211 211 213 214 217 218 216 218 223 226 226 227 226 224 222 220 219 220 222 224 225 227 230 235 239 242 245 248 250 253 255 257 259 260 261 262 262 262 262 263 264 264 265 265 266 269 269
233 233 233 233 235 237 237 237 238 236 230 225 222 219 213 210 207 199 209 212 196 193 200 204 204 205 207 209 209 210 214 216 216 216 218 222 226 227 227 227 221 217 217 218 219 220 223 226 229 234 238 242 245 246 249 251 253 255 256 258 260 261 262 263 264 264 263 264 264 264 265 265 266 267
233 231 230 230 231 234 235 235 236 237 237 233 228 223 216 211 210 207 210 225 204 192 197 205 207 205 204 205 206 208 212 215 215 216 218 222 227 227 225 225 221 216 215 216 218 220 225 229 232 236 239 242 244 247 250 252 253 255 256 257 259 261 262 262 263 264 264 264 264 264 264 265 265 265
236 232 230 229 228 230 231 232 232 233 235 235 231 227 221 217 216 215 215 235 219 200 200 203 204 204 202 201 203 206 208 211 213 215 217 220 224 224 222 222 221 218 215 215 218 222 226 231 234 236 238 241 244 247 250 252 254 256 257 258 259 260 261 262 263 263 264 264 264 264 264 264 264 264
237 234 232 232 231 230 228 228 229 229 229 230 229 227 225 222 222 220 217 227 231 206 201 201 199 200 199 199 201 202 202 204 207 211 215 217 220 221 219 217 218 217 214 216 221 227 230 232 234 237 238 241 244 246 249 252 254 256 258 259 260 261 262 262 263 263 263 264 263 264 263 263 263 263
236 235 234 234 234 232 229 227 226 226 225 225 224 224 222 221 221 219 216 220 227 207 192 194 192 193 195 196 198 200 199 199 200 204 208 212 217 219 217 215 216 217 219 224 229 232 234 235 236 238 240 241 243 245 248 251 253 256 258 260 260 261 261 262 262 263 263 263 263 263 263 263 263 263
236 235 235 235 235 233 229 227 225 225 224 222 222 222 221 220 220 219 217 217 220 210 184 186 186 186 192 196 197 198 199 197 198 201 204 207 211 214 215 217 221 225 229 233 235 235 237 239 240 240 241 242 244 245 247 250 254 256 258 259 259 260 260 261 261 262 262 263 263 263 263 263 263 263
237 234 234 236 236 233 229 228 226 224 222 220 220 221 220 219 219 219 217 216 217 210 185 188 193 187 189 195 195 195 196 196 198 201 203 206 208 210 214 220 227 232 234 234 233 234 236 239 241 241 243 244 245 246 248 250 253 255 256 257 258 258 259 260 261 261 262 263 263 263 263 263 263 263
244 239 235 236 237 234 230 228 225 222 220 219 219 219 219 219 219 217 213 213 213 209 193 188 193 191 190 193 194 193 191 192 196 200 203 207 210 214 218 223 228 231 232 231 233 235 237 239 241 243 243 245 246 247 249 250 252 253 254 255 256 257 258 259 260 261 262 262 262 263 262 263 263 263
251 245 240 238 238 235 231 228 226 223 220 218 217 217 216 216 216 213 210 209 208 208 203 191 185 190 192 191 192 195 193 189 191 195 201 208 212 214 216 219 223 226 230 233 235 237 238 239 241 243 244 246 248 248 249 250 251 252 253 254 256 257 257 258 259 260 260 261 262 262 262 262 262 263
253 250 247 244 241 238 234 230 227 222 218 216 215 216 216 214 213 211 209 208 205 204 204 195 186 188 191 191 193 196 195 194 195 195 194 200 208 212 215 219 222 226 230 233 237 240 244 245 244 246 246 245 246 248 248 249 251 252 253 255 256 258 259 260 261 262 262 262 262 263 263 263 263 263
250 250 249 246 243 239 237 235 230 224 218 213 212 215 216 214 212 211 209 206 204 203 202 198 192 187 187 191 193 192 191 196 202 202 197 195 201 210 218 223 224 224 226 228 232 237 241 243 243 244 245 244 245 247 248 250 252 253 255 257 260 262 263 263 263 264 264 264 264 264 264 264 264 264
247 247 247 246 244 241 239 240 237 230 222 215 213 214 215 213 211 210 208 204 201 201 201 199 194 187 188 190 189 190 194 199 202 201 201 205 205 207 215 221 223 222 219 218 222 226 230 235 240 242 244 246 248 249 251 252 255 259 262 262 264 265 265 265 265 265 265 265 265 265 266 266 265 265
245 244 244 244 244 243 242 243 242 238 230 223 220 218 216 214 210 206 204 202 200 200 199 199 194 190 196 197 194 196 202 203 200 196 199 205 204 199 205 215 217 215 209 208 215 223 229 235 241 242 244 247 250 252 254 257 262 267 268 266 264 265 265 264 265 265 266 266 266 267 267 267 267 266
241 240 240 241 242 241 240 240 239 237 233 228 227 224 220 217 213 208 203 200 200 199 200 201 196 195 202 202 199 200 202 201 200 199 199 201 200 197 199 205 207 208 210 213 222 229 231 234 239 240 243 246 248 251 255 261 265 265 265 265 264 264 265 265 266 267 267 268 269 269 269 268 268 267
239 239 240 241 239 237 236 236 235 233 233 233 231 228 223 220 218 215 211 206 201 199 200 200 199 202 206 204 201 201 199 197 198 200 201 202 202 201 199 198 198 205 213 217 224 230 227 226 235 239 241 244 247 252 257 261 263 263 264 265 265 266 267 267 268 268 270 271 272 272 271 270 269 269
238 240 241 239 234 231 231 231 230 229 233 236 234 229 223 220 219 218 218 216 210 205 201 199 202 206 206 203 204 203 199 195 193 196 201 204 204 201 197 197 198 201 210 214 221 232 231 228 235 241 243 248 252 257 262 265 265 266 267 267 267 268 268 269 271 272 273 275 275 274 274 273 271 270
236 236 235 233 230 228 227 225 224 225 229 231 229 224 219 216 217 217 217 216 215 211 206 204 208 210 208 208 208 204 199 196 193 195 200 202 201 197 196 199 202 205 215 219 222 237 240 237 241 248 252 257 259 262 268 269 266 266 268 268 269 271 273 275 276 277 278 279 280 279 277 275 274 273
234 233 231 230 229 228 225 221 220 222 224 224 222 218 214 213 214 215 214 213 212 212 210 210 211 211 211 212 209 204 201 199 199 200 202 201 197 193 193 198 204 210 220 226 224 238 251 248 248 255 261 263 263 266 270 270 269 269 270 270 272 274 277 279 280 280 281 282 283 282 280 279 277 276
235 233 229 227 228 228 226 222 219 220 220 217 214 212 210 210 210 211 214 213 212 212 212 213 213 212 212 211 209 205 201 198 198 196 194 194 189 184 187 196 211 224 231 235 235 241 256 257 254 259 266 269 268 270 274 278 279 277 274 274 278 280 280 281 281 281 281 283 284 283 282 281 280 278
235 235 231 228 229 228 226 222 219 217 215 212 209 206 205 204 205 208 211 210 210 211 211 212 212 210 208 204 203 202 199 197 195 187 179 180 182 180 182 192 221 237 243 245 240 236 247 256 257 263 272 274 273 276 282 288 287 280 278 281 282 281 280 280 280 281 282 283 283 283 283 283 283 282
237 236 234 232 231 228 225 222 218 215 212 208 205 202 199 197 198 201 202 201 203 206 203 203 203 200 197 194 191 191 193 196 197 190 183 185 184 181 190 202 222 246 253 248 233 226 241 253 258 270 281 281 280 284 291 293 282 272 283 287 283 282 284 283 282 282 283 283 283 284 284 285 285 284
240 237 234 233 231 228 224 220 215 212 208 205 204 201 195 191 192 192 191 191 194 195 193 193 192 190 190 189 185 182 184 190 197 198 197 196 192 189 200 206 205 242 259 245 226 224 241 253 256 268 281 288 295 295 288 274 259 269 283 288 290 293 294 292 288 285 284 283 283 285 286 285 285 283
233 227 228 229 227 224 223 219 213 209 206 203 202 198 192 190 190 188 186 186 186 184 183 183 183 182 183 181 177 175 174 179 189 196 198 202 204 205 207 205 201 216 246 241 218 217 231 248 256 260 254 254 285 291 277 270 270 276 285 290 295 301 302 299 295 292 290 288 286 286 286 284 282 280
221 208 211 219 219 219 219 216 210 208 205 200 197 196 195 194 189 183 179 179 178 174 172 172 172 171 171 169 168 169 171 176 185 193 197 205 213 216 215 209 209 227 244 248 232 229 240 252 255 255 248 243 256 271 281 284 281 281 287 290 294 301 302 299 296 294 294 294 293 292 288 286 284 280
211 198 202 211 212 211 211 207 204 205 200 193 192 195 193 186 180 175 172 170 168 164 162 162 161 161 162 163 164 168 174 181 190 195 199 208 217 225 228 225 224 236 248 253 246 241 247 253 251 249 247 251 262 269 275 282 285 286 286 288 295 299 298 295 293 292 294 296 297 296 292 289 287 282
198 192 198 202 199 199 199 196 197 199 192 184 186 188 180 171 170 170 166 163 161 158 157 157 157 159 162 164 167 175 183 189 196 200 207 217 225 228 232 234 236 243 251 255 251 244 245 251 254 254 253 256 267 273 263 267 279 285 284 290 298 303 302 298 293 293 295 297 298 298 296 292 291 287
189 188 192 192 187 186 187 188 193 193 180 173 175 176 169 165 165 163 160 159 156 154 154 156 157 161 166 171 178 185 191 195 200 207 213 218 221 221 225 230 235 242 249 253 253 251 251 254 259 264 262 256 253 257 260 267 278 286 291 296 301 304 305 302 295 294 298 300 299 300 297 295 294 292
190 188 185 179 172 172 174 179 181 173 164 163 166 165 161 159 161 161 160 158 156 154 156 157 158 162 170 178 185 190 195 198 201 204 203 202 205 211 219 227 234 244 249 249 249 249 250 255 261 266 265 258 251 252 260 272 282 287 290 294 296 299 304 305 301 300 303 302 300 298 295 292 292 290
172 169 163 157 156 158 164 167 161 153 152 156 156 155 156 159 162 162 159 158 157 157 157 157 158 163 170 178 183 188 193 194 192 191 192 195 201 206 213 223 232 237 236 234 237 242 248 258 264 265 264 262 258 259 265 271 278 283 284 285 289 297 304 307 307 305 304 302 299 296 292 290 289 286
137 139 140 141 141 142 145 146 142 139 140 142 142 146 152 158 161 162 162 163 162 160 158 158 161 165 170 174 178 182 184 182 182 185 188 191 193 196 205 221 229 226 217 220 240 257 263 269 270 265 266 267 266 271 275 272 271 278 283 285 285 289 297 302 303 303 304 303 299 295 293 291 289 286
124 125 125 124 122 123 124 123 124 126 129 132 137 142 149 154 157 160 162 162 161 161 160 159 161 165 169 174 176 177 178 178 178 181 183 186 188 188 192 208 222 232 234 237 256 270 275 278 276 273 274 275 276 281 283 275 269 273 281 287 286 284 290 297 300 302 306 305 299 296 295 292 289 287
119 116 116 116 116 118 119 117 118 120 122 126 133 139 145 150 153 156 159 159 160 163 164 162 164 167 169 171 173 172 175 178 178 178 179 179 180 183 192 207 223 238 249 259 274 282 284 290 289 286 286 284 282 282 278 274 276 280 281 284 286 285 290 298 301 304 308 307 301 299 298 294 292 290
118 114 110 111 115 118 119 119 120 122 123 124 128 135 143 150 154 157 161 162 163 166 169 169 170 169 167 168 170 171 174 175 174 177 181 180 178 181 192 210 221 227 245 268 292 309 310 311 309 301 296 290 285 284 276 268 274 282 283 282 283 288 296 302 305 307 309 307 303 300 298 297 296 294
115 115 114 114 119 122 123 125 127 129 131 131 132 136 142 150 156 159 162 164 166 169 171 171 171 170 169 169 171 174 176 175 173 176 180 182 185 187 193 210 224 230 246 272 298 317 320 322 320 312 307 301 298 301 296 273 268 279 289 293 294 298 303 307 309 309 308 306 302 297 296 298 298 298
111 118 120 121 126 127 127 131 134 136 138 139 140 143 144 149 159 165 166 168 170 170 170 169 169 170 172 172 173 176 178 176 175 178 182 184 188 194 203 218 232 244 256 276 299 312 314 318 317 309 306 314 314 309 309 302 290 287 294 299 303 307 308 308 310 308 304 303 300 292 289 294 296 298
113 120 122 125 133 135 135 139 142 143 146 147 149 152 152 154 162 168 170 171 171 171 171 170 169 171 174 174 173 176 180 181 181 183 186 190 195 203 214 224 232 247 265 282 300 308 307 310 308 297 286 297 310 288 291 305 311 308 303 300 302 305 307 306 306 304 302 301 297 290 288 288 290 295
122 127 127 129 136 139 142 146 147 148 152 153 154 156 157 159 163 167 171 173 172 172 172 171 171 173 176 176 176 178 180 182 185 188 190 196 203 208 215 226 237 255 277 291 300 306 304 299 297 290 276 267 281 290 295 307 308 309 313 310 302 301 304 304 301 301 303 302 298 293 291 287 287 292
133 136 137 139 144 146 149 152 155 155 157 159 160 161 163 165 167 170 173 174 175 175 175 175 175 177 179 181 182 183 181 182 188 193 195 200 207 211 217 230 247 266 285 293 299 304 300 295 296 294 284 272 273 286 292 291 290 298 309 317 309 303 304 303 301 301 302 302 301 299 297 293 291 294
142 143 146 149 152 155 157 160 163 164 164 166 169 171 173 174 175 176 178 177 177 178 178 179 180 181 182 184 186 187 188 191 194 198 199 202 209 217 224 236 253 271 280 285 290 294 296 303 309 307 297 293 294 296 295 291 288 293 304 315 316 309 305 303 302 301 300 301 303 302 300 298 297 297
147 148 154 159 161 164 166 168 171 172 172 173 176 180 183 184 184 185 185 183 182 182 182 183 186 186 187 188 190 191 194 196 197 200 203 207 214 223 231 239 251 260 264 269 277 286 298 309 313 311 308 308 309 309 303 293 292 299 304 308 312 313 311 308 303 299 299 302 304 301 298 297 297 299
152 152 158 165 169 171 171 173 176 177 177 179 182 184 187 190 190 190 189 187 187 187 188 190 193 193 193 194 196 199 201 202 203 207 210 214 220 224 229 239 249 255 257 261 273 286 301 313 316 316 317 317 314 310 298 280 290 298 301 304 308 313 316 315 310 305 304 305 302 297 295 296 298 301
157 158 161 167 173 176 178 181 184 184 184 186 187 189 190 191 191 191 191 190 190 192 194 197 198 199 200 200 202 205 208 209 212 214 216 222 227 231 237 246 254 261 264 269 281 294 305 314 318 317 315 314 309 293 274 280 288 291 296 302 306 310 314 317 317 316 316 314 309 301 294 292 293 297
169 171 173 177 181 184 187 190 193 195 195 194 194 196 197 196 196 196 196 197 197 197 200 202 203 203 204 205 206 209 213 216 219 222 225 231 237 243 251 258 264 270 274 280 290 300 306 312 315 314 310 308 303 288 279 284 290 291 294 300 305 308 311 314 317 320 322 323 325 321 309 298 296 296
184 183 185 190 194 196 199 202 204 205 206 204 203 203 202 202 202 201 201 202 203 202 203 205 207 208 208 209 212 215 217 219 223 227 233 239 243 250 258 263 268 275 282 287 293 298 304 308 310 310 308 304 299 291 285 285 288 290 295 299 302 305 309 312 316 318 318 318 325 330 324 314 309 308
Height
712 713 715 717 717 718 718 719 720 720 720 720 720 721 721 722 725 729 732 732 732 734 735 736 739 741 743 745 747 749 751 753 755 757 757 759 761 763 766 768 769 771 773 774 776 778 779 781 782 783 785 786 787 788 789 790 791 792 793 794 795 795 796 796 797 798 798 799 799 799 800 800 800 800
708 709 710 712 713 714 715 716 717 718 717 717 717 717 717 718 719 721 724 724 725 729 731 732 734 737 740 742 744 746 748 750 752 753 754 756 758 760 762 764 766 768 770 771 773 775 776 778 779 780 781 782 783 784 785 786 788 789 790 790 791 792 792 793 793 794 795 795 795 796 796 796 796 797
705 705 705 706 707 709 711 713 714 715 715 715 714 714 714 715 715 716 719 720 720 723 726 728 730 732 735 738 741 743 745 747 749 750 752 754 756 758 759 761 763 765 767 768 770 772 773 774 776 777 778 779 780 781 782 783 783 785 786 786 787 788 788 789 790 790 791 791 791 792 792 792 792 793
701 701 701 701 701 703 705 708 710 711 712 712 712 712 712 712 713 714 716 717 718 719 722 724 727 729 732 735 737 739 742 744 746 747 749 751 753 755 756 758 760 762 764 766 767 768 770 771 772 773 774 775 776 777 778 779 779 780 781 782 783 784 784 785 786 786 787 787 787 787 788 788 788 789
697 697 697 697 698 699 700 702 704 706 707 709 709 709 710 710 711 712 714 715 716 719 720 721 723 726 729 731 733 735 738 741 743 744 746 748 750 752 753 755 757 759 761 763 764 765 766 768 769 769 770 771 772 773 774 774 775 776 777 778 779 780 780 781 781 782 782 783 783 783 784 784 784 785
693 694 694 694 695 696 697 698 699 701 703 704 705 706 707 707 708 709 711 713 715 717 719 720 721 723 725 727 729 731 733 736 739 741 743 745 747 748 750 752 754 756 758 759 760 762 763 764 765 766 767 767 768 768 769 770 771 772 773 773 774 775 776 776 777 777 778 778 778 779 779 780 780 780
689 689 690 691 691 693 694 694 695 697 698 700 701 702 703 704 705 706 709 711 712 715 718 720 720 721 722 724 726 728 730 732 735 737 739 741 743 745 747 749 751 753 755 756 757 758 759 761 762 762 763 763 764 764 765 766 767 768 769 770 770 771 771 772 772 773 773 774 774 774 775 775 775 776
684 685 686 687 688 689 690 691 692 693 694 696 697 698 700 701 702 704 706 708 710 713 716 719 719 719 720 722 723 726 728 730 732 734 736 739 740 742 744 746 748 750 752 753 754 755 756 757 758 759 759 760 760 760 761 762 763 764 765 765 766 766 767 767 767 768 769 769 769 770 770 771 771 771
680 681 681 683 684 686 687 687 688 689 690 692 693 695 697 698 699 701 703 705 707 710 713 716 718 719 720 721 722 723 725 728 730 732 734 736 738 739 741 742 744 747 749 750 751 752 753 754 755 756 756 756 757 757 758 758 759 760 761 761 762 762 762 763 763 763 764 764 765 765 765 766 766 766
676 677 677 678 680 682 683 683 684 685 686 688 689 691 693 695 697 699 700 702 704 707 709 711 715 717 718 719 720 721 722 724 726 729 732 733 735 736 738 739 741 743 745 747 748 749 749 750 751 752 752 753 753 754 754 755 755 756 757 757 758 758 758 758 758 758 759 759 759 760 760 760 761 761
673 673 674 675 676 677 678 679 680 681 682 684 686 688 690 692 694 696 698 700 701 704 706 708 710 712 715 717 718 719 721 723 724 725 727 729 731 733 735 736 737 739 741 742 744 745 746 747 747 748 749 749 750 750 751 751 752 753 753 753 754 754 754 754 754 754 754 754 754 754 755 755 755 755
668 669 670 671 671 673 674 675 676 677 679 680 682 684 686 689 691 693 695 697 699 700 703 705 706 709 711 714 716 718 719 720 719 720 723 725 727 729 731 733 734 736 737 739 741 742 743 743 744 744 745 746 746 747 747 748 749 749 749 750 750 749 749 749 749 749 749 749 749 749 749 749 749 749
664 664 665 666 667 668 670 671 673 674 675 677 678 680 683 685 687 689 691 693 695 697 699 701 703 706 707 709 711 714 713 712 714 717 720 722 723 725 728 730 731 732 733 735 737 738 740 740 741 741 742 742 743 743 744 744 745 745 745 746 746 745 745 745 745 745 745 745 745 744 744 744 744 744
659 660 661 662 663 664 666 668 670 671 672 673 674 676 678 681 683 685 687 689 691 693 695 697 699 701 702 703 705 707 708 710 712 714 716 719 721 723 725 727 729 729 730 731 733 734 736 737 738 738 738 739 740 740 740 740 741 741 742 742 742 742 741 741 741 741 740 740 740 740 739 739 739 738
654 655 656 657 659 660 662 663 665 667 668 669 671 672 673 675 678 680 682 684 686 689 690 692 694 696 697 698 700 702 705 708 710 711 712 715 718 719 720 723 725 726 727 729 729 730 733 734 735 735 735 736 736 736 736 737 737 738 738 738 738 738 738 737 737 736 736 736 736 735 735 734 734 733
650 651 652 653 654 655 656 658 660 662 664 666 667 668 669 671 673 674 676 678 680 683 685 687 689 690 691 694 696 698 700 703 707 709 710 712 714 715 716 718 721 723 725 726 726 727 729 731 731 731 732 732 732 732 733 733 734 734 734 734 734 734 734 733 733 732 732 731 731 730 730 729 728 728
644 646 647 648 648 649 651 654 655 657 659 661 662 663 665 666 668 670 671 672 674 676 679 682 683 684 686 689 691 693 696 699 703 706 707 709 711 712 712 713 717 721 723 723 724 724 725 727 727 727 728 729 729 728 728 729 729 729 729 730 730 729 729 728 728 727 726 726 725 725 724 723 722 722
639 640 641 642 643 644 646 648 650 652 654 655 656 659 660 662 664 665 667 669 670 672 674 676 678 680 682 685 687 690 693 696 698 701 703 706 708 709 710 711 715 719 720 721 722 721 721 723 723 723 724 725 724 724 724 724 724 725 725 726 725 725 724 723 722 721 721 720 720 719 718 717 717 716
632 633 635 636 637 639 640 641 644 646 648 650 652 654 655 657 659 661 663 665 666 668 670 672 674 677 680 682 685 688 691 693 695 698 701 704 706 708 708 710 712 716 718 719 719 718 717 719 720 718 719 721 721 720 720 719 720 720 721 721 720 719 719 718 717 716 716 715 714 713 712 711 711 710
626 628 629 631 631 632 634 636 639 641 643 645 647 649 650 652 654 656 658 661 663 665 667 670 672 675 677 680 683 686 688 691 694 697 700 703 705 707 708 709 711 713 715 716 717 715 714 715 715 714 716 717 717 716 715 714 714 715 715 715 715 714 714 713 712 712 711 710 709 708 707 706 705 705
620 622 624 625 627 628 630 632 635 637 639 641 643 644 646 648 651 653 655 659 662 664 666 668 671 673 675 678 681 684 686 688 691 694 698 701 704 705 707 708 709 711 712 713 715 713 711 711 711 711 712 713 712 711 710 708 708 709 709 710 711 711 710 709 708 708 706 705 704 703 702 701 700 699
614 616 618 620 622 623 625 628 631 633 635 636 638 640 642 645 647 650 653 657 660 662 665 667 670 672 674 676 679 682 684 686 688 691 694 698 701 704 705 707 709 710 710 710 712 711 709 708 709 709 709 708 707 705 704 702 703 704 706 707 708 707 706 705 704 703 701 700 699 698 697 696 695 694
610 612 614 615 617 618 621 623 626 628 630 631 633 636 639 641 644 646 650 654 657 660 663 665 668 670 672 674 677 680 683 684 686 689 693 696 699 702 704 706 708 710 708 707 708 708 707 707 707 708 709 707 702 700 699 698 700 702 704 704 704 703 701 699 698 697 696 695 694 693 692 692 691 690
605 607 609 611 612 615 617 619 621 623 625 627 630 633 635 637 640 643 646 650 653 657 660 663 666 668 670 673 676 679 681 683 685 689 692 694 697 701 703 705 706 707 705 704 706 705 705 705 705 707 709 708 703 698 696 697 698 700 702 701 700 697 695 693 692 691 690 689 689 688 687 687 687 686
601 602 604 607 609 611 614 615 618 621 623 624 627 630 632 634 637 641 644 648 651 654 657 661 664 667 669 672 674 677 680 682 685 688 690 693 696 699 701 703 704 703 702 703 704 703 703 703 704 706 708 707 702 698 695 694 695 698 699 698 695 693 691 689 687 686 685 684 683 682 681 681 681 681
597 598 600 603 606 608 611 613 616 618 620 622 625 628 631 634 637 640 644 647 650 653 656 660 663 666 669 671 674 676 679 682 685 687 689 692 695 698 699 701 701 700 700 701 701 701 701 701 703 705 705 703 699 697 696 694 693 694 694 693 691 689 687 686 683 681 680 678 676 676 675 674 675 674
595 595 597 600 603 606 609 611 614 616 618 621 623 627 631 634 636 639 643 645 648 652 655 659 662 666 668 671 673 676 679 681 684 686 688 691 694 696 697 698 698 698 698 698 699 699 699 700 700 702 701 699 697 697 695 693 690 689 688 687 686 685 683 682 680 678 676 674 671 670 669 668 668 667
593 594 596 598 601 604 607 610 613 615 617 619 623 627 630 633 635 639 642 644 647 651 655 658 662 665 668 670 673 676 678 681 683 685 687 690 692 694 695 695 695 696 696 696 696 697 697 697 697 698 698 697 696 695 691 688 685 684 683 682 682 681 680 678 676 673 671 669 666 665 663 661 661 661
592 594 596 598 601 604 607 610 613 615 617 620 624 627 630 632 635 638 641 644 648 651 655 658 661 664 667 670 673 675 677 680 682 684 686 688 690 691 692 693 693 693 693 694 694 694 695 694 695 695 695 694 692 690 687 684 681 681 681 680 677 676 676 674 671 669 666 664 661 660 659 657 657 656
594 595 598 600 602 605 608 611 613 616 618 621 624 627 630 632 635 638 641 644 648 651 654 657 660 663 667 669 672 674 676 678 680 682 685 686 688 689 690 690 691 691 692 692 692 692 693 693 693 692 691 690 688 686 684 683 679 678 680 680 675 671 669 668 666 664 662 659 657 655 654 653 652 652
596 598 600 602 604 607 609 612 614 617 620 622 625 628 631 633 636 639 642 644 647 651 654 657 660 663 666 669 671 673 675 677 679 681 683 685 686 687 688 689 689 690 690 691 691 691 691 690 690 689 687 686 684 681 681 681 678 674 674 675 673 669 665 663 662 660 658 656 652 649 648 647 646 645
598 599 601 603 605 608 610 613 616 618 621 623 626 629 632 635 638 641 643 645 648 651 653 656 659 662 665 667 669 672 674 676 679 680 682 683 684 686 686 687 687 688 689 689 689 689 689 688 687 686 684 682 680 679 678 678 675 671 669 668 667 666 663 660 659 657 655 653 648 643 641 640 639 638
600 602 603 605 607 610 612 615 618 621 623 626 628 631 633 636 639 642 644 646 648 651 653 656 659 661 664 666 669 671 673 676 678 679 680 682 683 684 684 685 686 687 687 687 687 687 686 685 684 682 681 679 678 677 677 674 669 667 666 664 663 661 659 657 655 653 652 650 645 637 632 630 630 630
603 605 607 609 611 613 615 618 621 623 625 628 630 633 635 637 640 642 644 646 648 651 653 655 657 660 662 665 668 670 672 674 676 678 679 680 681 682 683 684 685 685 685 685 684 684 683 682 681 680 678 677 676 675 674 671 666 663 663 662 660 656 653 652 652 650 648 647 643 635 625 618 618 622
606 607 610 612 614 616 618 620 623 625 627 629 632 634 637 639 641 643 645 647 649 651 653 655 657 659 661 664 666 669 670 673 674 676 677 679 679 681 682 682 682 683 682 682 681 681 680 679 678 677 676 675 673 669 668 667 665 662 659 657 655 652 650 648 648 646 644 643 641 636 625 613 607 610
609 611 612 614 616 618 620 623 625 626 628 630 632 634 637 640 642 643 645 647 649 650 652 654 657 659 661 663 665 667 669 671 673 674 676 677 678 679 680 680 680 680 680 679 678 678 678 677 676 676 674 673 672 668 664 664 664 661 657 652 650 649 648 645 644 643 641 640 638 635 629 616 602 600
612 613 615 617 618 620 622 624 626 628 629 631 633 635 637 640 642 644 646 647 649 650 652 654 656 658 661 663 665 667 668 670 671 672 674 675 676 677 677 677 677 677 677 676 676 676 676 675 675 675 674 673 671 667 661 658 659 658 656 653 649 648 647 645 642 640 638 637 635 631 628 620 605 596
614 615 617 618 620 622 623 625 627 628 630 632 634 636 638 640 642 644 645 647 649 651 653 655 656 658 660 662 663 665 667 668 670 671 672 673 674 674 674 674 674 674 674 673 673 674 674 673 673 673 672 671 669 664 659 655 653 653 654 653 649 645 645 644 641 636 633 632 629 626 624 618 606 595
615 616 618 620 621 623 625 626 627 629 631 633 634 636 638 640 642 644 645 647 649 651 653 655 656 658 659 661 662 664 665 667 668 669 670 671 671 671 672 671 671 671 671 671 671 671 672 672 671 670 670 668 666 663 660 655 651 648 649 650 648 644 642 641 639 635 631 628 624 620 616 611 603 595
617 618 619 620 622 624 625 627 628 629 631 633 634 636 637 639 641 643 645 647 649 651 653 654 655 657 658 660 661 663 664 665 666 667 668 668 668 669 669 669 669 670 670 669 669 669 669 669 668 667 667 665 663 661 658 654 648 645 645 646 646 644 642 640 638 634 629 625 622 616 609 604 597 592
618 619 620 621 623 624 625 627 629 630 631 633 635 636 638 639 641 643 645 647 649 650 652 653 654 656 657 658 660 661 662 663 664 665 665 666 666 667 667 667 668 668 668 667 667 666 666 666 665 665 664 662 660 657 655 651 646 642 642 642 643 643 641 638 637 633 628 624 621 614 607 601 593 586
619 620 622 622 624 625 626 628 629 631 632 633 635 636 638 639 641 643 645 646 648 649 650 652 653 654 656 657 658 659 660 661 662 663 663 664 664 665 665 665 665 666 666 665 664 663 663 662 662 661 660 658 657 655 653 650 646 642 639 639 638 638 637 634 633 631 626 623 619 613 605 599 592 583
620 621 622 623 625 626 627 628 629 631 632 633 634 636 637 639 640 642 643 645 646 647 649 650 651 653 654 655 656 657 658 659 660 660 661 661 662 662 663 663 663 663 663 662 660 660 660 659 658 658 657 655 655 654 651 649 646 642 639 636 634 633 632 629 627 624 621 618 616 612 607 602 595 585
620 621 623 624 625 626 627 628 629 630 631 633 634 635 636 637 639 640 641 643 644 645 647 648 650 651 652 653 654 655 656 657 658 659 659 659 660 660 660 660 660 660 660 659 658 657 656 656 655 655 654 652 652 652 649 646 644 641 638 635 632 629 627 624 621 617 613 608 606 605 603 600 595 588
620 621 622 623 624 625 626 627 628 629 630 631 632 633 634 636 637 638 640 641 642 644 645 647 648 649 650 651 652 653 655 656 656 657 657 657 658 658 657 657 658 657 656 656 655 654 653 653 652 652 651 650 649 648 647 644 642 639 636 634 631 628 625 622 619 615 609 603 600 598 596 593 589 584